Regional Weather Roundup
Issued by NWS

Home | Current Version | Previous Version | Graphics & Text | Print | Product List | Glossary Off
Versions: 1 2 3 4 5 6 7 8 9 10 11 12 13 14 15 16 17 18 19 20 21 22 23 24 25 26 27 28 29 30 31 32 33 34 35 36 37 38 39 40 41 42 43 44 45 46 47 48 49 50

000
ASUS43 KMKX 232200
RWRWI

WISCONSIN REGIONAL WEATHER ROUNDUP
NATIONAL WEATHER SERVICE MILWAUKEE/SULLIVAN WI
500 PM CDT SAT SEP 23 2017

NOTE: "FAIR" INDICATES FEW OR NO CLOUDS BELOW 12,000 FEET WITH NO
SIGNIFICANT WEATHER AND/OR OBSTRUCTIONS TO VISIBILITY.

WIZ001-002-006>008-014>016-023>028-232300-
NORTHWEST WISCONSIN

CITY           SKY/WX    TMP DP  RH WIND       PRES   REMARKS
SUPERIOR ARPT  CLOUDY    82  73  73 W6        29.92S HX  87
ASHLAND        MOSUNNY   85  71  63 S8        29.93S HX  90
HAYWARD        PTSUNNY   84  70  62 S10       29.97S HX  88
SIREN          CLOUDY    84  70  61 SW6       29.95S HX  88
CUMBERLAND     CLOUDY    82  66  57 S12       29.97S HX  85
RICE LAKE      CLOUDY    86  66  50 S9        29.98S HX  88
CHETEK         CLOUDY    84  71  64 S7        29.97S HX  89
LADYSMITH      PTSUNNY   85  68  57 S9        30.01R HX  88
EAU CLAIRE     NOT AVBL
MENOMONIE      MOSUNNY   88  66  48 S9        29.96S HX  90
NEW RICHMOND   MOSUNNY   85  65  51 S12G17    29.96S HX  87
OSCEOLA        PTSUNNY   85  69  57 SW8       29.98R HX  89
$$

WIZ003>005-009-010-017-018-232300-
NORTH CENTRAL WISCONSIN

CITY           SKY/WX    TMP DP  RH WIND       PRES   REMARKS
MANITOWISH WTR PTSUNNY   84  68  58 SW9G17    30.01  HX  87
ARBOR VITAE    PTSUNNY   85  68  57 S14G20    30.01S HX  88
WOODRUFF       PTSUNNY   85  68  57 S14G20    30.01S HX  88
RHINELANDER    PTSUNNY   85  65  51 SW13      30.04R HX  86
EAGLE RIVER    MOSUNNY   83  63  50 SW5       30.02S HX  84
LAND O LAKES   MOSUNNY   83  65  55 SW8       30.03S HX  85
PHILLIPS       CLOUDY    85  69  58 S12G17    30.00S HX  89
TOMAHAWK       CLOUDY    85  62  46 S3        30.03R HX  86
MEDFORD        SUNNY     84  65  51 SW12      30.02S HX  86
MERRILL        CLOUDY    86  66  52 S7        30.02S HX  88
$$

WIZ029-030-035-036-043>047-232300-
CENTRAL WISCONSIN

CITY           SKY/WX    TMP DP  RH WIND       PRES   REMARKS
WAUSAU         MOSUNNY   86  65  49 SW12      30.01S HX  88
MOSINEE        MOSUNNY   84  66  54 S12G17    30.03S HX  86
MARSHFIELD     MOSUNNY   86  64  47 S10       30.02S HX  87
STEVENS POINT  CLOUDY    86  64  47 S10       30.02S HX  87
WAUPACA        MOSUNNY   91  64  40 S8        30.01F HX  92
WAUTOMA        SUNNY     90  65  43 S7        30.01F HX  92
WISC RAPIDS    SUNNY     88  67  49 SW9       30.03R HX  91
CAMP DOUGLAS   NOT AVBL
$$

WIZ011>013-019>022-031-037>040-048>050-232300-
NORTHEAST WISCONSIN

CITY           SKY/WX    TMP DP  RH WIND       PRES   REMARKS
ANTIGO         SUNNY     82  65  57 S8        30.05S HX  84
SHAWANO        SUNNY     89  65  44 S5        30.01S HX  90
OCONTO         SUNNY     88  67  50 S9        30.01S HX  91
STURGEON BAY   SUNNY     83  68  60 S12       30.03S HX  86
GREEN BAY      SUNNY     90  65  43 S10       30.02S HX  92
MANITOWOC      SUNNY     82  67  60 S12       30.04F HX  84
APPLETON       MOSUNNY   88  57  35 S9        30.01F HX  86
CLINTONVILLE   MOSUNNY   90  63  40 S8        30.01F HX  90
OSHKOSH        SUNNY     87  67  51 S6        30.02S HX  90
$$

WIZ032>034-041-042-053>061-232300-
SOUTHWEST WISCONSIN

CITY           SKY/WX    TMP DP  RH WIND       PRES   REMARKS
LA CROSSE      SUNNY     93  63  36 S12       29.96S HX  94
SPARTA         PTSUNNY   90  65  44 S12G17    30.00S HX  91
VIROQUA        MOSUNNY   89  65  44 S9        30.02S HX  90
BOSCOBEL       SUNNY     93  62  35 VRB7      29.98F HX  93
PRAIRIE DU CHI SUNNY     92  57  31 SE7       29.97F HX  90
PLATTEVILLE    SUNNY     92  60  34 S10       30.02F HX  91
$$

WIZ056-057-062-063-064-067-068-232300-
SOUTH CENTRAL WISCONSIN

CITY           SKY/WX    TMP DP  RH WIND       PRES   REMARKS
REEDSBURG      SUNNY     91  63  39 S9        30.00F HX  92
BARABOO/DELLS  NOT AVBL
LONE ROCK      NOT AVBL
MINERAL POINT  SUNNY     91  57  31 S9        30.03F HX  90
MADISON        MOSUNNY   91  62  37 S12       30.01F HX  91
MIDDLETON      SUNNY     93  54  26 S10       30.02F HX  91
WATERTOWN      SUNNY     91  63  40 S6        30.02F HX  91
MONROE         MOSUNNY   90  57  33 SE6       30.03F HX  88
JANESVILLE     MOSUNNY   93  57  29 SW8       30.01F HX  92
$$

WIZ051-052-058>065-066-070>072-232300-
SOUTHEAST WISCONSIN

CITY           SKY/WX    TMP DP  RH WIND       PRES   REMARKS
MILWAUKEE      MOSUNNY   86  67  52 SE13      30.04S HX  89
WAUKESHA       MOSUNNY   90  61  37 S9        30.05F HX  89
MILWAUKEE/TIMM SUNNY     88  57  35 SE9       30.04F HX  86
RACINE         SUNNY     84  67  56 SE12      30.06F HX  86
BURLINGTON     SUNNY     92  62  35 S3        30.03F HX  93
KENOSHA        SUNNY     88  65  46 SE14      30.05S HX  90
FOND DU LAC    SUNNY     88  64  44 S7        30.03F HX  89
SHEBOYGAN      SUNNY     85  69  58 S9        30.04F HX  89
WEST BEND        N/A     86  64  48 SE8       30.05S HX  87
JUNEAU         SUNNY     88  64  45 S6        30.05S HX  89
$$

LSZ147-162-232300-
LAKE SUPERIOR

STATION/POSITION TIME  TEMP    WIND        PRES    WAVE
                       AIR SEA DIR/SP/G            HT/PER
                 (UTC) (F)     (DEG/KT/KT) (MB)    (FT/S)
W MID LAKE BUOY  2050   63 55  300/  6/  8 1012.8F   1
DEVILS ISLAND    2100   75     230/  3/  4 1012.9S
PORT WING        2040   91     280/  1/  2 1013.2S
SAXON HARBOR     2130   89     210/  6/ 11 1012.9R
$$

LMZ867-665-643>646-232300-
LAKE MICHIGAN

STATION/POSITION TIME  TEMP    WIND        PRES    WAVE
                       AIR SEA DIR/SP/G            HT/PER
                 (UTC) (F)     (DEG/KT/KT) (MB)    (FT/S)
S GREEN BAY BUOY 2100   77 70  200/  8/  8 1016.2F
N MID LAKE BUOY  2050   69 67  190/ 12/ 14 1017.2F   2/ 4
NORTHPORT PIER   2140   82     160/  6/ 12 1016.3S
KEWAUNEE LAKESHO 2130   69     180/ 13/ 14 1016.5F
SHEBOYGAN LAKESH 2100   76     180/ 18/ 18 1016.8F
PORT WASHINGTON  2140   81     190/  1/  4 1017.9F
ATWATER BUOY     2009   71 68  160/  6/  8 1017.9
MILWAUKEE LAKESH 2130   73     260/  1/  1   N/A
S MID LAKE BUOY  2050   74 72  100/  4/  4 1018.1F   0
KENOSHA   LAKESH 2100   77     180/  7/  8 1016.9
$$

TC  - TEMPERATURE IN CELSIUS
VSB - VISIBILITY IN STATUTE MILES
WCI - WIND CHILL INDEX
HX  - HEAT INDEX





USA.gov is the U.S. government's official web portal to all federal, state and local government web resources and services.